[[{"header":{"parameterUnit":"m.s-1","parameterCategory":1,"la1":30.2991,"la2":30.254,"lo1":-89.0895,"lo2":-89.0444,"dy":0.0017,"dx":0.0017,"nx":28,"ny":28,"refTime":"2023-08-03T21:00:00:Z","depth":0,"parameterNumber":2,"parameterNumberName":"U-component_of_WINDS"},"data":[0,0,0,0,0,0,0,0,0,0,0,0,0,0,0,0,0,0,0,0,0,0,0,0,0,0,0,0,0,0,0,0,0,0,0,0,0,0,0,0,0,0,0,0,0,0,0,0,0,0,0,0,0,0,0,0,0,0,-0.5702,-0.5701,0,-0.5617,-0.5616,-0.5615,-0.5562,-0.5561,-0.5561,-0.5561,-0.5473,-0.5471,-0.5469,0,0,0,0,0,0,0,0,0,0,0,0,0,-0.582,-0.5818,-0.5703,-0.5701,-0.57,-0.5617,-0.5616,-0.5615,-0.5562,-0.5561,-0.5561,-0.5561,-0.5473,-0.5471,-0.5468,0,0,0,0,0,0,0,0,0,0,0,0,0,-0.5755,-0.5818,-0.5703,-0.5664,-0.566,-0.5617,-0.5616,-0.5614,-0.5562,-0.5561,-0.5561,-0.5561,-0.5474,-0.5471,-0.5468,-0.5457,0,0,-0.5458,-0.5457,0,0,0,0,0,0,0,0,-0.5759,-0.5751,-0.5671,-0.5667,-0.5662,-0.56,-0.5625,-0.5562,-0.5562,-0.5599,-0.5561,-0.556,-0.5515,-0.5509,-0.5494,-0.5453,-0.5449,-0.5458,-0.5456,-0.5455,-0.5454,0,0,0,0,0,0,0,-0.5764,-0.5754,-0.5669,-0.567,-0.5664,-0.5651,-0.5641,-0.5613,-0.556,-0.5596,-0.5592,-0.5582,-0.5513,-0.5497,-0.5491,-0.5448,-0.5458,-0.5455,-0.5454,-0.5452,-0.5396,-0.5396,0,0,0,0,0,0,-0.5774,-0.5759,-0.5671,-0.5666,-0.571,-0.5649,-0.5638,-0.562,-0.5561,-0.5551,-0.5583,-0.558,-0.5502,-0.5495,-0.5488,-0.5472,-0.5455,-0.5452,-0.545,-0.5396,-0.5396,-0.5396,0,0,0,0,0,0,-0.5777,-0.5767,-0.5675,-0.5711,-0.5698,-0.5648,-0.5627,-0.5618,-0.5602,-0.5551,-0.5541,-0.5576,-0.5502,-0.5492,-0.5466,-0.5468,-0.5451,-0.5448,-0.5395,-0.5396,-0.5396,-0.5439,0,0,0,0,0,0,-0.5781,-0.5768,-0.5764,-0.5711,-0.5697,-0.5654,-0.5627,-0.5617,-0.5597,-0.5593,-0.5542,-0.5533,-0.5501,-0.5471,-0.5463,-0.5463,-0.5445,-0.5395,-0.5395,-0.5396,-0.5437,-0.5441,-0.5445,0,0,0,0,0,-0.5785,-0.5779,-0.5764,-0.5753,-0.569,-0.5654,-0.5646,-0.5608,-0.5598,-0.5592,-0.556,-0.5535,-0.5469,-0.5468,-0.5459,-0.5459,-0.5394,-0.5395,-0.5396,-0.5436,-0.5441,-0.5445,0,0,0,0,0,0,-0.5832,-0.5771,-0.5754,-0.573,-0.5698,-0.5645,-0.5637,-0.5614,-0.5584,-0.5581,-0.5536,-0.5525,-0.5503,-0.5478,-0.5478,-0.5446,-0.5429,-0.5428,-0.5463,-0.5467,-0.547,-0.5476,-0.5443,0,0,0,0,0,-0.5839,-0.5816,-0.5764,-0.5748,-0.5733,-0.5689,-0.5672,-0.5646,-0.561,-0.5596,-0.5561,-0.5528,-0.55,-0.5482,-0.5453,-0.5434,-0.5423,-0.543,-0.5433,-0.5436,-0.5436,-0.5425,-0.5427,-0.5399,-0.5399,-0.5399,0,0,-0.5855,-0.5819,-0.5806,-0.5757,-0.5729,-0.5705,-0.5677,-0.5653,-0.5635,-0.5592,-0.5565,-0.5539,-0.5499,-0.5476,-0.5464,-0.5454,-0.5441,-0.5437,-0.544,-0.5438,-0.5426,-0.5428,-0.5431,-0.54,-0.54,-0.54,0,0,-0.587,-0.5841,-0.5825,-0.5798,-0.5756,-0.5726,-0.5723,-0.5674,-0.5655,-0.5627,-0.5595,-0.5573,-0.5526,-0.5498,-0.5478,-0.5486,-0.5462,-0.5478,-0.5497,-0.5486,-0.5488,-0.549,-0.5493,-0.5495,-0.5478,-0.5478,-0.5478,0,-0.5894,-0.5858,-0.5819,-0.5798,-0.5777,-0.5738,-0.5722,-0.5698,-0.5648,-0.5635,-0.5625,-0.5566,-0.5536,-0.5507,-0.5509,-0.5494,-0.5488,-0.5483,-0.5491,-0.5493,-0.5494,-0.5496,-0.5497,-0.548,-0.548,-0.548,-0.548,0,-0.589,-0.5865,-0.5857,-0.5811,-0.579,-0.5771,-0.573,-0.5714,-0.5691,-0.5663,-0.5635,-0.5599,-0.5562,-0.5554,-0.553,-0.5522,-0.5517,-0.55,-0.5482,-0.5499,-0.5501,-0.5501,-0.5484,-0.5483,-0.5482,-0.5482,0,0,-0.593,-0.5865,-0.5863,-0.5842,-0.5794,-0.5774,-0.5754,-0.5719,-0.5706,-0.5674,-0.5656,-0.5618,-0.5602,-0.5579,-0.5553,-0.5544,-0.5553,-0.5528,-0.5527,-0.5534,-0.5542,-0.5555,-0.5556,-0.5538,-0.5538,-0.5538,-0.5545,0,-0.5938,-0.59,-0.5866,-0.5841,-0.5818,-0.5782,-0.5764,-0.5733,-0.5707,-0.5684,-0.5655,-0.5629,-0.561,-0.5596,-0.5586,-0.5555,-0.5554,-0.5554,-0.5521,-0.552,-0.5531,-0.5557,-0.557,-0.5578,-0.5546,-0.5546,-0.5546,0,-0.5942,-0.5913,-0.5885,-0.584,-0.583,-0.5815,-0.578,-0.5759,-0.5723,-0.5705,-0.5681,-0.5654,-0.5632,-0.5617,-0.5586,-0.5587,-0.5572,-0.5555,-0.5554,-0.5549,-0.5533,-0.5552,-0.558,-0.5581,-0.5546,-0.5546,-0.5546,0,-0.5975,-0.5928,-0.5905,-0.5889,-0.5836,-0.5827,-0.5804,-0.5769,-0.575,-0.5721,-0.5708,-0.5676,-0.5659,-0.5635,-0.56,-0.5593,-0.5573,-0.5556,-0.5557,-0.5558,-0.5554,-0.5554,-0.5579,-0.5546,-0.5546,-0.5546,-0.5545,0,-0.5987,-0.5971,-0.5919,-0.5905,-0.5887,-0.5849,-0.5832,-0.5807,-0.5776,-0.5757,-0.5724,-0.5707,-0.5662,-0.564,-0.5613,-0.5592,-0.5584,-0.5569,-0.5562,-0.5571,-0.5573,-0.556,-0.5558,-0.5546,-0.5546,-0.5546,-0.5546,0,-0.6019,-0.5984,-0.5957,-0.591,-0.5898,-0.5887,-0.5847,-0.5832,-0.5805,-0.5781,-0.5774,-0.5731,-0.5703,-0.5667,-0.5627,-0.5609,-0.5591,-0.5581,-0.5603,-0.5599,-0.5602,-0.5603,-0.5619,-0.5619,-0.5587,-0.5587,-0.5587,0,-0.6028,-0.6016,-0.5968,-0.5953,-0.5932,-0.5908,-0.589,-0.5852,-0.5834,-0.5794,-0.5784,-0.5754,-0.5728,-0.5686,-0.5651,-0.5622,-0.5609,-0.5618,-0.5605,-0.5615,-0.5609,-0.561,-0.5609,-0.562,-0.5621,-0.5621,-0.5622,0,-0.6049,-0.6033,-0.6007,-0.5976,-0.5955,-0.5929,-0.5901,-0.589,-0.5847,-0.5829,-0.58,-0.578,-0.5741,-0.5711,-0.5678,-0.5655,-0.5631,-0.5626,-0.5625,-0.5634,-0.5648,-0.564,-0.5611,-0.5626,-0.5625,-0.5625,-0.5625,-0.5625,-0.607,-0.6057,-0.6022,-0.5995,-0.5971,-0.5946,-0.593,-0.5902,-0.5877,-0.5842,-0.5822,-0.5795,-0.5761,-0.5713,-0.5692,-0.567,-0.5661,-0.5659,-0.5658,-0.5658,-0.5661,-0.5652,-0.5664,-0.5663,-0.5663,-0.5663,-0.5663,0,-0.6089,-0.6065,-0.604,-0.6003,-0.5982,-0.5963,-0.5931,-0.5915,-0.5891,-0.5862,-0.5838,-0.5806,-0.5778,-0.5742,-0.5712,-0.5701,-0.569,-0.5694,-0.5694,-0.569,-0.5671,-0.5675,-0.5704,-0.5704,-0.5704,-0.5704,-0.5704,-0.5704,-0.6096,-0.6074,-0.6054,-0.602,-0.5996,-0.5969,-0.5952,-0.593,-0.5906,-0.5872,-0.5849,-0.5826,-0.5794,-0.5762,-0.5736,-0.5726,-0.5716,-0.5724,-0.5711,-0.5695,-0.5691,-0.5687,-0.5691,-0.5723,-0.5723,-0.5731,-0.5731,-0.5732]},{"header":{"parameterUnit":"m.s-1","parameterCategory":1,"la1":30.2991,"la2":30.254,"lo1":-89.0895,"lo2":-89.0444,"dy":0.0017,"dx":0.0017,"nx":28,"ny":28,"refTime":"2023-08-03T21:00:00:Z","depth":0,"parameterNumber":3,"parameterNumberName":"V-component_of_WINDS"},"data":[0,0,0,0,0,0,0,0,0,0,0,0,0,0,0,0,0,0,0,0,0,0,0,0,0,0,0,0,0,0,0,0,0,0,0,0,0,0,0,0,0,0,0,0,0,0,0,0,0,0,0,0,0,0,0,0,0,0,2.4714,2.4714,0,2.4729,2.4729,2.4729,2.4769,2.477,2.4771,2.4772,2.4784,2.4784,2.4783,0,0,0,0,0,0,0,0,0,0,0,0,0,2.4717,2.4716,2.4714,2.4714,2.4714,2.4729,2.4729,2.4729,2.4769,2.477,2.4771,2.4772,2.4784,2.4784,2.4783,0,0,0,0,0,0,0,0,0,0,0,0,0,2.4722,2.4716,2.4714,2.4736,2.4738,2.4729,2.4729,2.4729,2.4769,2.477,2.4772,2.4773,2.4784,2.4784,2.4783,2.4752,0,0,2.4781,2.4781,0,0,0,0,0,0,0,0,2.4721,2.4722,2.4733,2.4735,2.4737,2.4749,2.4735,2.4737,2.4769,2.4757,2.4772,2.4773,2.4771,2.4772,2.4771,2.4753,2.4754,2.4781,2.478,2.478,2.478,0,0,0,0,0,0,0,2.4721,2.4721,2.472,2.4733,2.4735,2.4744,2.4746,2.4735,2.4756,2.4758,2.4761,2.4763,2.4772,2.4772,2.4772,2.4754,2.4781,2.478,2.478,2.4779,2.4709,2.4707,0,0,0,0,0,0,2.4718,2.4721,2.4719,2.472,2.4732,2.4743,2.4746,2.4744,2.4757,2.476,2.4762,2.4764,2.4773,2.4773,2.4773,2.4736,2.478,2.4779,2.4779,2.471,2.4708,2.4707,0,0,0,0,0,0,2.4718,2.4718,2.4719,2.4721,2.4722,2.4742,2.4739,2.4743,2.4743,2.4759,2.4763,2.4757,2.4774,2.4774,2.4757,2.4737,2.4779,2.4778,2.4712,2.471,2.4708,2.4663,0,0,0,0,0,0,2.4718,2.4717,2.4707,2.4721,2.4722,2.4704,2.4738,2.4743,2.4742,2.4746,2.4756,2.4759,2.4775,2.4758,2.4756,2.4736,2.4778,2.4714,2.4711,2.4708,2.4666,2.4659,2.4653,0,0,0,0,0,2.4718,2.4693,2.4706,2.4705,2.4709,2.4703,2.4703,2.4722,2.474,2.4729,2.4739,2.4759,2.474,2.4756,2.4754,2.4734,2.4715,2.4712,2.4708,2.4669,2.466,2.4654,0,0,0,0,0,0,2.4675,2.4695,2.471,2.4689,2.4694,2.4709,2.4696,2.4713,2.4712,2.4716,2.4739,2.4741,2.472,2.4726,2.4743,2.4704,2.473,2.4727,2.4701,2.4693,2.4687,2.4685,2.4777,0,0,0,0,0,2.4664,2.4658,2.4675,2.4655,2.4657,2.4676,2.4674,2.4688,2.4694,2.4695,2.4705,2.4708,2.4703,2.4699,2.4695,2.4668,2.4669,2.4653,2.4647,2.4641,2.4637,2.4621,2.4613,2.4696,2.4696,2.4696,0,0,2.4639,2.465,2.4644,2.4647,2.4653,2.4644,2.4677,2.4668,2.4661,2.4694,2.4678,2.4685,2.469,2.4668,2.4658,2.4672,2.4615,2.4637,2.4633,2.4632,2.4617,2.4609,2.4602,2.4694,2.4694,2.4695,0,0,2.459,2.4598,2.4582,2.4586,2.4594,2.4607,2.4603,2.4616,2.4621,2.4607,2.463,2.4622,2.4613,2.4615,2.4615,2.4566,2.4583,2.4564,2.4531,2.4514,2.4508,2.4502,2.4482,2.4475,2.4561,2.4561,2.456,0,2.4558,2.4548,2.4571,2.4559,2.4559,2.4589,2.4571,2.4574,2.458,2.4578,2.4594,2.4582,2.4588,2.4565,2.4553,2.4553,2.4547,2.4562,2.4507,2.4502,2.4497,2.4478,2.447,2.4558,2.4558,2.4559,2.4559,0,2.4507,2.4499,2.4485,2.449,2.4488,2.4474,2.4493,2.4488,2.4503,2.4513,2.4496,2.4505,2.4502,2.4498,2.4512,2.4477,2.4484,2.4503,2.453,2.4486,2.4468,2.4461,2.4554,2.4555,2.4556,2.4557,0,0,2.443,2.4448,2.4442,2.4444,2.4455,2.4449,2.4435,2.4433,2.4428,2.4431,2.4418,2.4409,2.4426,2.4426,2.4441,2.4427,2.4384,2.4447,2.4448,2.4433,2.4342,2.4326,2.4318,2.4397,2.4396,2.4395,2.4341,0,2.4382,2.436,2.438,2.4353,2.4345,2.4373,2.4361,2.4365,2.4375,2.4368,2.4378,2.4371,2.4396,2.4395,2.4383,2.4392,2.4366,2.4397,2.4383,2.4382,2.4378,2.4309,2.4292,2.4241,2.4335,2.4334,2.4333,0,2.4322,2.4322,2.4295,2.4306,2.4304,2.4292,2.4291,2.4286,2.429,2.4298,2.4298,2.4316,2.4301,2.4329,2.4307,2.4328,2.4323,2.4327,2.4325,2.4323,2.4353,2.4302,2.4226,2.4217,2.4323,2.4324,2.4324,0,2.4265,2.4259,2.4242,2.4243,2.4256,2.4247,2.4252,2.4259,2.4256,2.4255,2.4253,2.425,2.4247,2.4244,2.426,2.4279,2.4236,2.4265,2.4239,2.4239,2.4227,2.4227,2.4146,2.4228,2.4228,2.4229,2.4229,0,2.4207,2.4189,2.4216,2.4205,2.4184,2.4207,2.4186,2.4194,2.4199,2.4189,2.4214,2.4203,2.4226,2.4217,2.423,2.4209,2.4208,2.4212,2.4215,2.4209,2.4208,2.4204,2.4207,2.4227,2.4227,2.4227,2.4228,0,2.414,2.4158,2.414,2.4154,2.4157,2.4141,2.4153,2.4142,2.4154,2.414,2.4138,2.4155,2.4146,2.4162,2.4155,2.4163,2.4133,2.4143,2.4131,2.4133,2.4105,2.4106,2.4017,2.4005,2.4098,2.4097,2.4096,0,2.41,2.4087,2.41,2.4095,2.4099,2.4091,2.4088,2.411,2.4106,2.411,2.4098,2.4091,2.4087,2.407,2.4081,2.4075,2.4083,2.4053,2.4083,2.4075,2.4079,2.4079,2.4076,2.4045,2.4044,2.4044,2.4043,0,2.4027,2.4037,2.4033,2.4031,2.4027,2.4027,2.4028,2.4022,2.4045,2.4039,2.403,2.4027,2.402,2.4011,2.4008,2.4012,2.403,2.4034,2.4027,2.4018,2.4011,2.4012,2.4111,2.4035,2.4036,2.4036,2.4037,2.4037,2.3971,2.3959,2.3966,2.396,2.3964,2.3964,2.3954,2.3964,2.3958,2.3954,2.3968,2.3955,2.3959,2.3957,2.3958,2.3947,2.3961,2.3952,2.3949,2.3945,2.394,2.4015,2.3947,2.3948,2.3948,2.3948,2.3948,0,2.3897,2.3903,2.3897,2.3898,2.3893,2.3913,2.3915,2.3908,2.3898,2.3901,2.3896,2.3885,2.3877,2.3887,2.388,2.387,2.3878,2.3867,2.3866,2.3866,2.393,2.3935,2.386,2.386,2.386,2.386,2.386,2.3861,2.3858,2.3839,2.3849,2.3831,2.3837,2.3826,2.3825,2.3824,2.3827,2.3813,2.3807,2.3815,2.382,2.3814,2.3806,2.381,2.3805,2.379,2.3796,2.3854,2.3862,2.387,2.3875,2.379,2.379,2.3733,2.3733,2.3732]}]]